Regional Weather Roundup
Issued by NWS Sioux Falls, SD

Home | Current Version | Previous Version | Graphics & Text | Print | Product List | Glossary On
Versions: 1 2 3 4 5 6 7 8 9 10 11 12 13 14 15 16 17 18 19 20 21 22 23 24 25 26 27 28 29 30 31 32 33 34 35 36 37 38 39 40 41 42 43 44 45 46 47 48 49 50
162
ASUS43 KFSD 061410
RWRFSD

WEATHER ROUNDUP FOR SE SOUTH DAKOTA/SW MINNESOTA/NW IOWA
NATIONAL WEATHER SERVICE SIOUX FALLS SD
800 AM CST SAT FEB 06 2016

NOTE: "FAIR" INDICATES FEW OR NO CLOUDS BELOW 12,000 FEET WITH NO
SIGNIFICANT WEATHER AND OR OBSTRUCTIONS TO VISIBILITY.


SDZ038>040-050-052>070-061500-
SOUTHEAST SOUTH DAKOTA

CITY           SKY/WX    TMP DP  RH WIND       PRES   REMARKS
BROOKINGS      CLOUDY    21  19  92 S8        30.03F WCI  11
CHAMBERLAIN    CLOUDY    23  19  86 SW8       30.04F WCI  14
HURON          CLOUDY    24  19  81 S10       30.02F WCI  14
MADISON        FAIR      25  25 100 SW9       30.05F WCI  15
MITCHELL       CLOUDY    26  21  81 SW10      30.08F WCI  16
SIOUX FALLS    CLOUDY    20  17  88 S8        30.09F WCI  10
WINNER         FAIR      28  16  60 SW8       30.04F WCI  20
YANKTON        CLOUDY    16  12  86 CALM      30.13F
$$

MNZ071-072-080-081-089-090-097-098-061500-
SOUTHWEST MINNESOTA

CITY           SKY/WX    TMP DP  RH WIND       PRES   REMARKS
FAIRMONT       CLOUDY    25  21  86 SW10      30.13R WCI  15
JACKSON        FOG       25  23  93 SW9       30.12F VSB 3/4 WCI  15
LUVERNE        FOG       19  16  86 S3        30.12F VSB 1/4
MARSHALL         N/A     27  22  81 SW16      30.04  WCI  15
MONTEVIDEO     CLOUDY    27  25  93 SW12      30.03F WCI  16
PIPESTONE        N/A     19  14  79 SW5       30.06F WCI  13
REDWOOD FALLS  CLOUDY    22  19  89 S9        30.07F WCI  12
TRACY          CLEAR     26  22  84 SW16      30.06F WCI  14
WINDOM         CLOUDY    21  21 100 SW7       30.10F FOG     WCI  13
WORTHINGTON    CLOUDY    19  18  93 SW13      30.11S WCI   7
$$

IAZ001>003-012>014-020>022-031-032-NEZ013-014-SDZ071-061500-
NORTHWEST IOWA

CITY           SKY/WX    TMP DP  RH WIND       PRES   REMARKS
CHEROKEE       FOG       27  27 100 SW6       30.18F VSB 1/4 WCI  20
DENISON        FOG       28  28 100 SW7       30.20S VSB 1/4 WCI  21
ESTHERVILLE    FOG       24  23  96 SW14      30.14F VSB 1/2 WCI  12
LE MARS        CLOUDY    18  18 100 S6        30.18F WCI   9
ORANGE CITY    SNOW      18  18 100 CALM      30.14F VSB<1/4
SHELDON        FOG       19  19 100 S9        30.12F VSB 1/4 WCI   9
SIOUX CITY     FOG       15  11  83 E7        30.20S VSB 1/4 WCI   5
SPENCER        FOG       27  23  85 SW13      30.15F VSB 1/4 WCI  16
STORM LAKE     CLOUDY    23  23 100 MISG      30.18S FOG
$$

ABBREVIATIONS USED IN REMARKS
   TC - TEMPERATURE IN CELSIUS
  WCI - WIND CHILL INDEX
   HX - HEAT INDEX
  VSB - VISIBILITY





USA.gov is the U.S. government's official web portal to all federal, state and local government web resources and services.